Regional Weather Roundup
Issued by NWS

Home | Current Version | Previous Version | Graphics & Text | Print | Product List | Glossary Off
Versions: 1 2 3 4 5 6 7 8 9 10 11 12 13 14 15 16 17 18 19 20 21 22 23 24 25 26 27 28 29 30 31 32 33 34 35 36 37 38 39 40 41 42 43 44 45 46 47 48 49 50

000
ASUS43 KLSX 262110
RWRMO

WEATHER SUMMARY FOR MISSOURI
NATIONAL WEATHER SERVICE SPRINGFIELD MO
400 PM CDT WED APR 26 2017

NOTE: "FAIR" INDICATES FEW OR NO CLOUDS BELOW 12,000 FEET WITH NO
       SIGNIFICANT WEATHER AND/OR OBSTRUCTIONS TO VISIBILITY.
       CURRENT SKY AND/OR WEATHER CONDITIONS ARE NOT AVAILABLE FOR
       CHILLICOTHE AND FARMINGTON.

MOZ001>031-035>038-043-044-053-054-262200-
...NORTHERN AND WESTERN MISSOURI...

CITY           SKY/WX    TMP DP  RH WIND       PRES   REMARKS
KANSAS CTY INT CLOUDY    49  39  68 N12       29.60S
KANSAS C DTWN  CLOUDY    49  39  68 NW8       29.61R
LEE`S SUMMIT   CLOUDY    46  42  86 NW10      29.60S
ST JOSEPH      CLOUDY    50  39  66 N17       29.61F
CHILLICOTHE      N/A     49  42  77 VRB7      29.59F
KIRKSVILLE     LGT RAIN  47  45  93 N6        29.56F

$$
MOZ066>068-077>081-088>096-101>105-262200-
...SOUTHWEST MISSOURI...

CITY           SKY/WX    TMP DP  RH WIND       PRES   REMARKS
SPRINGFIELD    LGT RAIN  48  47  96 NW10      29.53S FOG
JOPLIN         CLOUDY    47  44  90 N13       29.60S
BRANSON        LGT RAIN  50  50 100 NW9       29.53R VSB 1

$$
MOZ032>034-039>042-045>050-055>058-069>072-262200-
...CENTRAL MISSOURI...

CITY           SKY/WX    TMP DP  RH WIND       PRES   REMARKS
COLUMBIA       LGT RAIN  49  49 100 N13       29.49F FOG
JEFFERSON CITY CLOUDY    52  48  86 NW10      29.51F FOG
ROLLA          FOG       52  52 100 NW9       29.48F VSB<1/4
SEDALIA        RAIN      47  47 100 N15       29.56F FOG
WHITEMAN AFB   RAIN      44  44 100 NW9       29.55F FOG
OSAGE BEACH    LGT RAIN  48  47  96 N8        29.52S FOG

$$
MOZ051-052-059>065-262200-
...EAST CENTRAL MISSOURI...

CITY           SKY/WX    TMP DP  RH WIND       PRES   REMARKS
ST LOUIS INTL  LGT RAIN  65  59  81 SE8       29.49F
SPIRIT OF STL  TSTM      62  60  93 S5        29.48F
ST CHARLES     LGT RAIN  62  61  96 SE12      29.47F

$$
MOZ072>076-082>087-097>100-106>115-262200-
...SOUTH CENTRAL AND SOUTHEAST MISSOURI...

CITY           SKY/WX    TMP DP  RH WIND       PRES   REMARKS
CAPE GIRARDEAU LGT RAIN  61  58  90 NE9       29.54F FOG
FARMINGTON     LGT RAIN  61  59  93 MISG      29.51F
POPLAR BLUFF   HVY RAIN  59  59 100 E9        29.52F VSB 1
WEST PLAINS    RAIN      58  56  93 VRB7G16   29.50R FOG

$$




USA.gov is the U.S. government's official web portal to all federal, state and local government web resources and services.